Location: B
(0.0000°N, 0.0000°E)
Time: 02:23:39
(UTC+01:00)

Amateur Radio Satellites - All Passes

Search period start: 12 February 2016 01:53
Search period end: 13 February 2016 01:53
Location: B, 0.0000°N, 0.0000°E

Satellite Date Start Highest point End Downlink Frequencies (MHz)
Time Altitude Azimuth
ITUPSAT 1 12 Feb 01:54:36 01:57:30 16° 77° (ENE) 02:00:23 437.325
TISAT 1 12 Feb 01:55:32 01:59:35 44° 258° (WSW) 02:03:38 437.305
SPROUT 12 Feb 01:56:05 01:58:11 13° 258° (WSW) 02:00:17 437.525
BEESAT 12 Feb 02:01:08 02:04:37 21° 78° (ENE) 02:08:07 436.000
Oscar 19 12 Feb 02:09:34 02:14:40 86° 283° (WNW) 02:19:49 437.125/150
JAS-2 12 Feb 02:16:23 02:21:30 66° 103° (ESE) 02:26:47 435.910
Cosmos 2491 12 Feb 02:30:39 02:37:31 26° 87° (E) 02:44:23 435.465 / 435.565
DANDE 12 Feb 02:36:54 02:43:04 82° 275° (W) 02:50:54 436.750
YUBILEINY 12 Feb 02:51:20 02:59:00 34° 93° (E) 03:06:38 435.215
SWISSCUBE 12 Feb 02:52:27 02:57:11 70° 258° (WSW) 03:01:54 437.505
Gurwin Techsat 1B 12 Feb 02:56:41 03:02:00 84° 283° (WNW) 03:07:20 435.225
KKS-1 12 Feb 03:09:37 03:11:22 12° 78° (ENE) 03:13:07 437.445
SRMSAT 12 Feb 03:21:05 03:25:41 22° 164° (SSE) 03:30:14 437.500
ITAMSAT 1 12 Feb 03:22:49 03:28:02 88° 103° (ESE) 03:33:17 435.822/435.867
JUGNU 12 Feb 03:29:15 03:35:13 69° 159° (SSE) 03:41:12 437.505
ITUPSAT 1 12 Feb 03:31:10 03:35:04 25° 257° (WSW) 03:38:59 437.325
CUSAT 1 12 Feb 03:32:18 03:35:31 13° 279° (W) 03:38:54 437.405
BEESAT 3 12 Feb 03:34:56 03:38:25 31° 68° (ENE) 03:41:54 437.485
BEESAT 12 Feb 03:38:42 03:42:09 20° 257° (WSW) 03:45:36 436.000
BEESAT 2 12 Feb 04:02:39 04:06:25 44° 68° (ENE) 04:10:11 435.950
SO-50 12 Feb 04:10:07 04:14:42 54° 292° (WNW) 04:19:26 436.795
M-CUBED/EXP-1 PRIME 12 Feb 04:18:39 04:21:59 27° 107° (ESE) 04:25:34 437.505
STARS 12 Feb 04:20:39 04:25:02 58° 78° (ENE) 04:29:21 437.465
Cosmos 2491 12 Feb 04:25:57 04:33:56 40° 267° (W) 04:42:02 435.465 / 435.565
AUBIESAT-1 12 Feb 04:26:32 04:29:56 28° 107° (ESE) 04:33:33 437.475
AO-7 12 Feb 04:35:00 04:43:17 88° 285° (WNW) 04:51:36 29.400- 29.500
KKS-1 12 Feb 04:43:47 04:47:40 29° 258° (WSW) 04:51:32 437.445
HORYU 2 12 Feb 04:46:52 04:51:07 44° 102° (ESE) 04:55:24 437.375
YUBILEINY 12 Feb 04:48:06 04:55:22 30° 273° (W) 05:02:43 435.215
MOZHAYETS 4 12 Feb 04:52:04 04:56:38 80° 259° (W) 05:01:11
Cosmos 2504 12 Feb 04:59:43 05:07:31 54° 92° (E) 05:15:49 435.465 / 435.565
SRMSAT 12 Feb 05:09:17 05:15:08 55° 159° (SSE) 05:20:57 437.500
JUGNU 12 Feb 05:18:39 05:24:19 43° 340° (NNW) 05:29:59 437.505
CUBESAT XI-V 12 Feb 05:39:34 05:43:12 23° 78° (ENE) 05:46:50 437.345
M-CUBED/EXP-1 PRIME 12 Feb 05:55:52 05:56:27 10° 283° (WNW) 05:57:02 437.505
AUBIESAT-1 12 Feb 06:03:51 06:04:19 10° 284° (WNW) 06:04:48 437.475
AIST 2 12 Feb 06:14:39 06:18:33 45° 248° (WSW) 06:22:29 435.215
LilacSat-2 12 Feb 06:45:56 06:49:36 48° 101° (ESE) 06:53:19 437.200
O/OREOS (USA 219) 12 Feb 06:47:55 06:51:33 24° 104° (ESE) 06:55:11 437.305
BRITE-PL 12 Feb 06:54:58 06:58:34 28° 101° (E) 07:02:07 437.365/2234.400
Cosmos 2504 12 Feb 06:55:39 07:00:39 18° 275° (W) 07:05:52 435.465 / 435.565
CUTE-I 12 Feb 06:55:45 07:01:07 79° 103° (ESE) 07:06:29 437.470
SRMSAT 12 Feb 06:58:32 07:04:21 54° 339° (NNW) 07:10:09 437.500
JUGNU 12 Feb 07:09:40 07:13:44 19° 345° (NNW) 07:17:46 437.505
Cubesat XI-IV 12 Feb 07:10:12 07:15:33 71° 283° (WNW) 07:20:55 437.490
STRAND 1 12 Feb 07:12:53 07:17:13 28° 77° (ENE) 07:21:31 437.568
CUBESAT XI-V 12 Feb 07:17:16 07:20:19 17° 258° (WSW) 07:23:22 437.345
GOMX 1 12 Feb 07:48:31 07:52:37 68° 101° (E) 07:56:47 467.674
PRISM 12 Feb 07:52:08 07:54:52 17° 78° (ENE) 07:57:37 437.425
HO-68 12 Feb 08:16:57 08:23:20 35° 105° (ESE) 08:29:42 435.675
GONETS M04 12 Feb 08:17:44 08:24:35 26° 93° (E) 08:31:22
CANX-2 12 Feb 08:19:31 08:23:08 27° 102° (ESE) 08:26:46 2200.000
O/OREOS (USA 219) 12 Feb 08:28:30 08:30:40 13° 285° (WNW) 08:32:50 437.305
SRMSAT 12 Feb 08:49:20 08:53:48 22° 344° (NNW) 08:58:15 437.500
STRAND 1 12 Feb 08:52:52 08:56:06 17° 257° (WSW) 08:59:20 437.568
COMPASS 1 12 Feb 08:53:23 08:57:10 32° 102° (ESE) 09:00:57 437.405
DOVE 4 12 Feb 08:56:20 08:59:56 29° 281° (W) 09:03:38 437.250
PHONESAT 2.4 12 Feb 09:02:02 09:05:15 65° 43° (NE) 09:08:27 2401.200-2431.200
JUGNU 12 Feb 09:02:38 09:03:40 10° 354° (N) 09:04:41 437.505
PCSat 12 Feb 09:03:25 09:07:26 21° 110° (ESE) 09:11:25 145.827
CUTE 1.7 + AOD 2 12 Feb 09:09:03 09:13:18 64° 281° (W) 09:17:33 437.475
AO-85 12 Feb 09:10:56 09:15:43 75° 111° (ESE) 09:20:54 145.980
SEEDS 12 Feb 09:11:16 09:15:31 87° 278° (W) 09:19:48 437.485
Oscar 11 12 Feb 09:11:52 09:14:19 15° 102° (ESE) 09:16:46 145.826/435.025
AAUSAT CUBESAT 2 12 Feb 09:19:24 09:23:32 62° 101° (E) 09:27:42 437.432
UWE-3 12 Feb 09:20:42 09:24:14 24° 102° (ESE) 09:27:52 435.000/436.395/437.385
CUBEBUG 2 12 Feb 09:24:16 09:28:23 41° 102° (ESE) 09:32:38 437.445
RS-15 12 Feb 09:26:55 09:35:23 26° 112° (ESE) 09:43:52 29.354- 29.394
PRISM 12 Feb 09:27:13 09:29:56 17° 258° (WSW) 09:32:41 437.425
CINEMA 3 12 Feb 09:33:13 09:37:08 37° 281° (W) 09:41:14 145.822/145.860
Cosmos 2499 12 Feb 09:53:33 10:01:35 58° 92° (E) 10:10:05 435.465 / 435.565
CANX-2 12 Feb 09:57:05 09:58:44 12° 282° (WNW) 10:00:23 2200.000
HO-68 12 Feb 10:05:03 10:10:43 25° 285° (WNW) 10:16:23 435.675
ZACube-1 12 Feb 10:08:34 10:12:54 75° 101° (E) 10:17:24 437.345
HUMSAT D 12 Feb 10:09:03 10:11:20 14° 102° (ESE) 10:13:38 437.325/437.525
ANTELSAT 12 Feb 10:11:06 10:13:11 13° 79° (ENE) 10:15:14 437.575/2403.000
AIST 1 12 Feb 10:11:50 10:15:11 21° 94° (E) 10:18:31
GONETS M04 12 Feb 10:13:07 10:21:00 39° 273° (W) 10:28:52
DELFI C3 12 Feb 10:14:46 10:18:43 55° 102° (ESE) 10:22:40 145.870
FUNcube-1 12 Feb 10:16:21 10:20:43 89° 281° (W) 10:25:13 145.935
TIGRISAT 12 Feb 10:16:42 10:19:13 15° 79° (ENE) 10:21:43 435.000
SRMSAT 12 Feb 10:41:58 10:43:46 11° 352° (N) 10:45:33 437.500
PCSat 12 Feb 10:46:10 10:50:33 25° 290° (WNW) 10:54:56 145.827
Oscar 11 12 Feb 10:46:46 10:50:10 23° 282° (WNW) 10:53:36 145.826/435.025
JUGNU 12 Feb 10:53:00 10:53:53 10° 5° (N) 10:54:47 437.505
UWE-3 12 Feb 10:58:02 11:00:28 15° 281° (W) 11:02:56 435.000/436.395/437.385
UNISAT 6 12 Feb 11:00:18 11:04:46 72° 78° (ENE) 11:09:04 437.425
DX 1 12 Feb 11:04:56 11:05:39 10° 103° (ESE) 11:06:21 434.975-435.025
POPSAT HIP 1 12 Feb 11:15:34 11:18:17 17° 78° (ENE) 11:20:59 437.405
ESTCUBE 1 12 Feb 11:18:10 11:21:25 20° 102° (ESE) 11:24:39 437.505/2401.250
NANOSAT C BR1 12 Feb 11:18:32 11:21:25 18° 78° (ENE) 11:24:17 145.865
DUCHIFAT 1 12 Feb 11:18:59 11:21:44 17° 78° (ENE) 11:24:28 145.980
QB50P1 12 Feb 11:27:10 11:30:40 25° 78° (ENE) 11:34:09 145.935-145.965
50 SAT 12 Feb 11:33:18 11:36:45 33° 102° (ESE) 11:40:14 437.505
RS-15 12 Feb 11:36:52 11:47:14 52° 291° (WNW) 11:57:56 29.354- 29.394
HUMSAT D 12 Feb 11:43:22 11:46:42 23° 281° (WNW) 11:50:05 437.325/437.525
ANTELSAT 12 Feb 11:45:58 11:49:40 26° 258° (WSW) 11:53:17 437.575/2403.000
Cosmos 2499 12 Feb 11:49:32 11:54:28 17° 274° (W) 11:59:33 435.465 / 435.565
AIST 1 12 Feb 11:50:09 11:52:29 14° 274° (W) 11:54:50
TIGRISAT 12 Feb 11:52:11 11:55:40 23° 257° (WSW) 11:59:05 435.000
VELOX 1 12 Feb 12:04:33 12:08:56 77° 102° (ESE) 12:13:20 145.980
BUGSAT 1 12 Feb 12:08:45 12:12:45 40° 78° (ENE) 12:16:41 437.445
POLYITAN 1 12 Feb 12:20:06 12:24:15 49° 258° (WSW) 12:28:21 437.675
QB50P2 12 Feb 12:20:39 12:24:46 46° 258° (WSW) 12:28:50 145.880/145.840
UKube-1 12 Feb 12:20:49 12:25:05 68° 282° (WNW) 12:29:22 .
AISAT 12 Feb 12:21:46 12:26:02 55° 282° (WNW) 12:30:20 437.250
SPROUT 12 Feb 12:26:18 12:30:03 31° 102° (ESE) 12:33:49 437.525
CUBEBUG 1 12 Feb 12:34:20 12:38:28 48° 282° (WNW) 12:42:38 437.445
DX 1 12 Feb 12:37:45 12:41:34 31° 282° (WNW) 12:45:23 434.975-435.025
JUGNU 12 Feb 12:39:52 12:43:49 18° 15° (NNE) 12:47:44 437.505
POPSAT HIP 1 12 Feb 12:50:45 12:53:49 19° 258° (WSW) 12:56:51 437.405
NANOSAT C BR1 12 Feb 12:54:01 12:56:54 18° 258° (WSW) 12:59:46 145.865
DUCHIFAT 1 12 Feb 12:54:12 12:57:11 19° 258° (WSW) 13:00:09 145.980
ESTCUBE 1 12 Feb 12:54:49 12:57:57 19° 282° (WNW) 13:01:05 437.505/2401.250
QB50P1 12 Feb 13:04:19 13:06:11 13° 258° (WSW) 13:08:02 145.935-145.965
Oscar 19 12 Feb 13:06:31 13:09:24 15° 77° (ENE) 13:12:17 437.125/150
ISS 12 Feb 13:20:00 13:23:12 55° 305° (NW) 13:26:23 145.825
SWISSCUBE 12 Feb 13:40:02 13:41:38 12° 103° (ESE) 13:43:14 437.505
DANDE 12 Feb 13:46:20 13:49:14 17° 78° (ENE) 13:51:43 436.750
JAS-2 12 Feb 13:47:18 13:54:40 44° 77° (ENE) 14:01:48 435.910
Gurwin Techsat 1B 12 Feb 13:57:21 14:00:53 18° 77° (ENE) 14:04:24 435.225
TISAT 1 12 Feb 14:01:06 14:04:56 36° 282° (WNW) 14:08:48 437.305
ITUPSAT 1 12 Feb 14:15:33 14:19:47 31° 102° (ESE) 14:24:02 437.325
SRMSAT 12 Feb 14:20:50 14:24:19 16° 13° (NNE) 14:27:50 437.500
ITAMSAT 1 12 Feb 14:21:11 14:23:53 14° 77° (ENE) 14:26:34 435.822/435.867
BEESAT 12 Feb 14:22:03 14:26:30 39° 102° (ESE) 14:30:58 436.000
JUGNU 12 Feb 14:27:38 14:33:11 43° 20° (NNE) 14:38:42 437.505
CUSAT 1 12 Feb 14:33:10 14:35:46 20° 269° (W) 14:38:02 437.405
Oscar 19 12 Feb 14:43:49 14:48:27 33° 257° (WSW) 14:53:04 437.125/150
SO-50 12 Feb 14:45:18 14:47:33 14° 67° (ENE) 14:49:49 436.795
Cosmos 2491 12 Feb 15:03:01 15:11:26 51° 93° (E) 15:19:45 435.465 / 435.565
AO-7 12 Feb 15:11:55 15:17:21 19° 73° (ENE) 15:22:45 29.400- 29.500
SWISSCUBE 12 Feb 15:14:48 15:19:09 35° 282° (WNW) 15:23:31 437.505
KKS-1 12 Feb 15:20:49 15:23:48 18° 103° (ESE) 15:26:46 437.445
YUBILEINY 12 Feb 15:23:51 15:32:33 67° 87° (E) 15:41:13 435.215
BEESAT 3 12 Feb 15:27:49 15:31:24 33° 112° (ESE) 15:34:59 437.485
DANDE 12 Feb 15:30:49 15:31:42 11° 272° (W) 15:32:32 436.750
JAS-2 12 Feb 15:33:11 15:39:14 25° 256° (WSW) 15:45:13 435.910
Gurwin Techsat 1B 12 Feb 15:36:02 15:40:33 29° 257° (WSW) 15:45:04 435.225
ITUPSAT 1 12 Feb 15:55:06 15:57:21 13° 283° (WNW) 15:59:37 437.325
BEESAT 2 12 Feb 15:56:34 16:00:26 49° 111° (ESE) 16:04:18 435.950
ITAMSAT 1 12 Feb 15:58:25 16:03:04 34° 257° (WSW) 16:07:43 435.822/435.867
BEESAT 12 Feb 16:03:34 16:04:01 10° 283° (WNW) 16:04:28 436.000
SRMSAT 12 Feb 16:08:35 16:13:58 36° 20° (NNE) 16:19:23 437.500
JUGNU 12 Feb 16:16:24 16:22:13 68° 201° (SSW) 16:28:02 437.505
M-CUBED/EXP-1 PRIME 12 Feb 16:20:03 16:23:32 27° 76° (ENE) 16:26:46 437.505
SO-50 12 Feb 16:24:00 16:27:48 27° 248° (WSW) 16:31:32 436.795
AUBIESAT-1 12 Feb 16:27:28 16:30:53 27° 76° (ENE) 16:34:05 437.475
STARS 12 Feb 16:31:31 16:35:53 84° 102° (ESE) 16:40:17 437.465
KKS-1 12 Feb 16:56:55 17:00:07 20° 282° (WNW) 17:03:19 437.445
HORYU 2 12 Feb 16:59:22 17:03:47 67° 78° (ENE) 17:08:10 437.375
AO-7 12 Feb 17:01:35 17:09:42 56° 254° (WSW) 17:17:51 29.400- 29.500
Cosmos 2491 12 Feb 17:02:09 17:07:51 19° 273° (W) 17:13:33 435.465 / 435.565
MOZHAYETS 4 12 Feb 17:08:54 17:13:20 46° 282° (WNW) 17:17:47
Cosmos 2504 12 Feb 17:12:20 17:20:14 71° 86° (E) 17:27:37 435.465 / 435.565
YUBILEINY 12 Feb 17:25:07 17:28:56 13° 267° (W) 17:32:46 435.215
M-CUBED/EXP-1 PRIME 12 Feb 17:57:08 17:57:47 10° 252° (WSW) 17:58:26 437.505
CUBESAT XI-V 12 Feb 17:57:15 18:01:34 39° 102° (ESE) 18:05:53 437.345
SRMSAT 12 Feb 17:57:16 18:03:13 84° 202° (SSW) 18:09:14 437.500
CUTE-I 12 Feb 17:57:53 18:00:45 15° 77° (ENE) 18:03:36 437.470
AUBIESAT-1 12 Feb 18:04:54 18:05:05 10° 252° (WSW) 18:05:17 437.475
JUGNU 12 Feb 18:06:36 18:11:24 26° 197° (SSW) 18:16:13 437.505
Cubesat XI-IV 12 Feb 18:11:18 18:15:21 22° 77° (ENE) 18:19:22 437.490
AIST 2 12 Feb 18:13:12 18:17:03 36° 292° (WNW) 18:20:53 435.215
LilacSat-2 12 Feb 18:40:51 18:44:29 39° 79° (E) 18:48:04 437.200
O/OREOS (USA 219) 12 Feb 18:58:08 19:02:30 43° 76° (ENE) 19:06:51 437.305
BRITE-PL 12 Feb 19:19:22 19:24:58 76° 78° (ENE) 19:30:39 437.365/2234.400
CUTE-I 12 Feb 19:35:43 19:40:31 35° 257° (WSW) 19:45:18 437.470
DOVE 4 12 Feb 19:39:17 19:43:37 26° 79° (E) 19:47:50 437.250
STRAND 1 12 Feb 19:44:40 19:49:48 73° 103° (ESE) 19:54:56 437.568
SRMSAT 12 Feb 19:47:17 19:52:32 31° 199° (SSW) 19:57:49 437.500
Cubesat XI-IV 12 Feb 19:50:58 19:55:08 24° 257° (WSW) 19:59:19 437.490
PRISM 12 Feb 19:55:01 19:57:57 19° 102° (ESE) 20:00:52 437.425
JUGNU 12 Feb 19:58:34 20:01:06 13° 190° (S) 20:03:37 437.505
HO-68 12 Feb 20:08:55 20:14:56 29° 75° (ENE) 20:20:54 435.675
GOMX 1 12 Feb 20:11:02 20:16:26 59° 258° (WSW) 20:21:46 467.674
CINEMA 3 12 Feb 20:14:04 20:17:15 18° 79° (E) 20:20:22 145.822/145.860
CANX-2 12 Feb 20:25:59 20:29:45 32° 79° (E) 20:33:30 2200.000
PHONESAT 2.4 12 Feb 20:34:46 20:37:53 41° 137° (SE) 20:41:01 2401.200-2431.200
GONETS M04 12 Feb 20:49:37 20:58:06 53° 87° (E) 21:06:38
COMPASS 1 12 Feb 20:57:47 21:01:36 37° 79° (E) 21:05:25 437.405
RS-15 12 Feb 21:08:39 21:17:44 24° 67° (ENE) 21:26:37 29.354- 29.394
CUTE 1.7 + AOD 2 12 Feb 21:15:45 21:19:49 50° 259° (WSW) 21:23:53 437.475
SEEDS 12 Feb 21:16:52 21:21:01 71° 258° (WSW) 21:25:09 437.485
DOVE 4 12 Feb 21:17:11 21:21:00 20° 257° (WSW) 21:24:45 437.250
Oscar 11 12 Feb 21:20:03 21:23:07 19° 78° (ENE) 21:26:10 145.826/435.025
AAUSAT CUBESAT 2 12 Feb 21:23:19 21:27:26 72° 79° (ENE) 21:31:32 437.432
AO-85 12 Feb 21:25:30 21:29:47 53° 249° (WSW) 21:33:43 145.980
PRISM 12 Feb 21:30:33 21:33:01 16° 282° (WNW) 21:35:28 437.425
UWE-3 12 Feb 21:31:56 21:35:57 34° 79° (E) 21:39:49 435.000/436.395/437.385
CUBEBUG 2 12 Feb 21:36:55 21:41:25 64° 79° (ENE) 21:45:44 437.445
PCSat 12 Feb 21:38:15 21:43:36 66° 71° (ENE) 21:48:57 145.827
SRMSAT 12 Feb 21:39:01 21:42:18 15° 192° (SSW) 21:45:35 437.500
CINEMA 3 12 Feb 21:50:14 21:54:08 24° 257° (WSW) 21:57:56 145.822/145.860
HO-68 12 Feb 21:56:14 22:02:18 30° 255° (WSW) 22:08:24 435.675
Cosmos 2499 12 Feb 22:04:51 22:12:28 73° 87° (E) 22:19:37 435.465 / 435.565
HUMSAT D 12 Feb 22:13:58 22:16:29 16° 79° (ENE) 22:18:58 437.325/437.525
DELFI C3 12 Feb 22:14:15 22:18:06 53° 79° (ENE) 22:21:58 145.870
AIST 1 12 Feb 22:18:07 22:21:50 29° 86° (E) 22:25:31
ZACube-1 12 Feb 22:18:55 22:23:16 77° 260° (W) 22:27:29 437.345
ANTELSAT 12 Feb 22:22:48 22:26:12 21° 103° (ESE) 22:29:40 437.575/2403.000
FUNcube-1 12 Feb 22:26:27 22:30:45 63° 258° (WSW) 22:34:55 145.935
TIGRISAT 12 Feb 22:28:25 22:32:01 24° 103° (ESE) 22:35:41 435.000
GONETS M04 12 Feb 22:48:47 22:54:32 19° 267° (W) 23:00:20
Oscar 11 12 Feb 22:56:12 22:58:58 17° 258° (WSW) 23:01:45 145.826/435.025
DX 1 12 Feb 23:12:54 23:15:22 15° 78° (ENE) 23:17:50 434.975-435.025
UNISAT 6 12 Feb 23:13:13 23:17:42 75° 282° (WNW) 23:22:20 437.425
RS-15 12 Feb 23:17:50 23:29:55 63° 250° (WSW) 23:41:44 29.354- 29.394
POPSAT HIP 1 12 Feb 23:21:24 23:24:29 20° 102° (ESE) 23:27:35 437.405
NANOSAT C BR1 12 Feb 23:24:04 23:27:16 21° 102° (ESE) 23:30:28 145.865
DUCHIFAT 1 12 Feb 23:24:14 23:27:19 20° 102° (ESE) 23:30:23 145.980
50 SAT 12 Feb 23:26:22 23:29:26 24° 78° (ENE) 23:32:28 437.505
ESTCUBE 1 12 Feb 23:31:38 23:35:35 30° 78° (ENE) 23:39:31 437.505/2401.250
QB50P1 12 Feb 23:33:07 23:36:49 30° 102° (ESE) 23:40:32 145.935-145.965
JUGNU 12 Feb 23:38:23 23:41:23 14° 169° (S) 23:44:25 437.505
HUMSAT D 12 Feb 23:49:01 23:51:52 18° 258° (WSW) 23:54:42 437.325/437.525
ANTELSAT 12 Feb 23:59:36 00:02:39 18° 281° (WNW) 00:05:45 437.575/2403.000
TIGRISAT 13 Feb 00:05:44 00:08:27 16° 281° (WNW) 00:11:13 435.000
BUGSAT 1 13 Feb 00:12:02 00:15:50 42° 102° (ESE) 00:19:40 437.445
VELOX 1 13 Feb 00:16:17 00:20:44 72° 258° (WSW) 00:25:11 145.980
POLYITAN 1 13 Feb 00:26:40 00:30:36 39° 282° (WNW) 00:34:35 437.675
QB50P2 13 Feb 00:27:13 00:31:06 37° 282° (WNW) 00:35:02 145.880/145.840
UKube-1 13 Feb 00:29:35 00:33:48 50° 258° (WSW) 00:37:59 .
SPROUT 13 Feb 00:33:45 00:37:49 40° 78° (ENE) 00:41:50 437.525
AISAT 13 Feb 00:33:49 00:37:58 37° 258° (WSW) 00:42:06 437.250
CUBEBUG 1 13 Feb 00:44:39 00:48:41 35° 258° (WSW) 00:52:43 437.445
DX 1 13 Feb 00:47:49 00:51:18 23° 258° (WSW) 00:54:46 434.975-435.025
ISS 13 Feb 00:53:32 00:56:46 81° 55° (NE) 01:00:00 145.825
POPSAT HIP 1 13 Feb 00:57:30 01:00:01 16° 282° (WNW) 01:02:32 437.405
DUCHIFAT 1 13 Feb 01:00:18 01:02:46 15° 282° (WNW) 01:05:14 145.980
NANOSAT C BR1 13 Feb 01:00:26 01:02:45 15° 282° (WNW) 01:05:04 145.865
ESTCUBE 1 13 Feb 01:10:29 01:12:07 12° 258° (WSW) 01:13:45 437.505/2401.250
SRMSAT 13 Feb 01:20:26 01:22:58 13° 171° (S) 01:25:29 437.500
JAS-2 13 Feb 01:23:53 01:26:38 14° 104° (ESE) 01:29:26 435.910
CUSAT 1 13 Feb 01:24:51 01:31:32 51° 93° (E) 01:39:14 437.405
JUGNU 13 Feb 01:25:53 01:31:02 29° 162° (SSE) 01:36:12 437.505
Oscar 19 13 Feb 01:38:17 01:42:59 38° 102° (ESE) 01:47:42 437.125/150
